When you browse on this site, cookies collect data to enhance your experience and personalize the content and advertising you see.
Visit our Privacy Policy to learn more. By continuing to use the site, you agree to this use of cookies and data.
  • In France
  • List of Countries
  • For 7 days
  • Water Temperature
  • Weather Map
  • Weather Widgets
  • user-avatar
    Login

    Hourly Weather Port Said

    Today, 3 June, Wednesday

    Time Temperature Precipitation Wind Pressure Humidity
    00:00 +19°C° 0 mm 2 mps 758 mmHg 80%
    01:00 +19°C° 0 mm 2 mps 758 mmHg 81%
    02:00 +18°C° 0 mm 2 mps 758 mmHg 84%
    03:00 +18°C° 0 mm 2 mps 758 mmHg 84%
    04:00 +18°C° 0 mm 2 mps 758 mmHg 85%
    05:00 +17°C° 0 mm 3 mps 758 mmHg 86%
    06:00 +19°C° 0 mm 2 mps 758 mmHg 75%
    07:00 +21°C° 0 mm 2 mps 758 mmHg 63%
    08:00 +25°C° 0 mm 2 mps 759 mmHg 51%
    09:00 +27°C° 0 mm 2 mps 759 mmHg 44%
    10:00 +28°C° 0 mm 2 mps 759 mmHg 37%
    11:00 +30°C° 0 mm 3 mps 759 mmHg 30%
    12:00 +30°C° 0 mm 4 mps 758 mmHg 33%
    13:00 +30°C° 0 mm 5 mps 758 mmHg 36%
    14:00 +30°C° 0 mm 6 mps 758 mmHg 38%
    15:00 +29°C° 0 mm 6 mps 758 mmHg 42%
    16:00 +28°C° 0 mm 6 mps 758 mmHg 45%
    17:00 +27°C° 0 mm 6 mps 758 mmHg 49%
    18:00 +24°C° 0 mm 6 mps 758 mmHg 55%
    19:00 +23°C° 0 mm 5 mps 758 mmHg 61%
    20:00 +22°C° 0 mm 5 mps 758 mmHg 67%
    21:00 +22°C° 0 mm 4 mps 759 mmHg 68%
    22:00 +21°C° 0 mm 4 mps 759 mmHg 70%
    23:00 +21°C° 0 mm 4 mps 759 mmHg 71%

    Tomorrow, 4 June, Thursday

    Time Temperature Precipitation Wind Pressure Humidity
    00:00 +21°C° 0 mm 4 mps 759 mmHg 71%
    01:00 +21°C° 0 mm 4 mps 758 mmHg 71%
    02:00 +21°C° 0 mm 4 mps 758 mmHg 71%
    03:00 +21°C° 0 mm 4 mps 758 mmHg 72%
    04:00 +21°C° 0 mm 4 mps 758 mmHg 72%
    05:00 +21°C° 0 mm 3 mps 758 mmHg 73%
    06:00 +24°C° 0 mm 3 mps 758 mmHg 63%
    07:00 +26°C° 0 mm 3 mps 758 mmHg 53%
    08:00 +28°C° 0 mm 3 mps 758 mmHg 43%
    09:00 +29°C° 0 mm 4 mps 759 mmHg 39%
    10:00 +30°C° 0 mm 4 mps 759 mmHg 36%
    11:00 +32°C° 0 mm 5 mps 759 mmHg 32%
    12:00 +32°C° 0 mm 6 mps 759 mmHg 35%
    13:00 +30°C° 0 mm 6 mps 759 mmHg 37%
    14:00 +30°C° 0 mm 7 mps 759 mmHg 40%
    15:00 +29°C° 0 mm 7 mps 759 mmHg 45%
    16:00 +27°C° 0 mm 7 mps 759 mmHg 50%
    17:00 +26°C° 0 mm 7 mps 759 mmHg 55%
    18:00 +24°C° 0 mm 7 mps 760 mmHg 61%
    19:00 +23°C° 0 mm 6 mps 760 mmHg 67%
    20:00 +22°C° 0 mm 5 mps 760 mmHg 72%
    21:00 +22°C° 0 mm 5 mps 761 mmHg 74%
    22:00 +22°C° 0 mm 5 mps 761 mmHg 75%
    23:00 +21°C° 0 mm 5 mps 761 mmHg 77%

    Day after tomorrow, 5 June, Friday

    Time Temperature Precipitation Wind Pressure Humidity
    00:00 +21°C° 0 mm 5 mps 761 mmHg 78%
    01:00 +21°C° 0 mm 5 mps 761 mmHg 80%
    02:00 +21°C° 0 mm 5 mps 760 mmHg 81%
    03:00 +20°C° 0 mm 5 mps 760 mmHg 80%
    04:00 +20°C° 0 mm 5 mps 760 mmHg 80%
    05:00 +20°C° 0 mm 5 mps 761 mmHg 79%
    06:00 +22°C° 0 mm 5 mps 761 mmHg 71%
    07:00 +23°C° 0 mm 5 mps 761 mmHg 63%
    08:00 +26°C° 0 mm 6 mps 761 mmHg 55%
    09:00 +27°C° 0 mm 6 mps 761 mmHg 51%
    10:00 +28°C° 0 mm 6 mps 761 mmHg 48%
    11:00 +29°C° 0 mm 6 mps 761 mmHg 45%
    12:00 +29°C° 0 mm 6 mps 760 mmHg 43%
    13:00 +29°C° 0 mm 6 mps 760 mmHg 41%
    14:00 +29°C° 0 mm 6 mps 759 mmHg 39%
    15:00 +28°C° 0 mm 7 mps 759 mmHg 43%
    16:00 +27°C° 0 mm 7 mps 759 mmHg 47%
    17:00 +26°C° 0 mm 7 mps 759 mmHg 51%
    18:00 +24°C° 0 mm 7 mps 759 mmHg 58%
    19:00 +23°C° 0 mm 6 mps 759 mmHg 65%
    20:00 +22°C° 0 mm 6 mps 760 mmHg 72%
    21:00 +22°C° 0 mm 5 mps 760 mmHg 75%
    22:00 +21°C° 0 mm 5 mps 760 mmHg 77%
    23:00 +21°C° 0 mm 5 mps 760 mmHg 80%

    6 June, Saturday

    Time Temperature Precipitation Wind Pressure Humidity
    00:00 +21°C° 0 mm 4 mps 760 mmHg 79%
    01:00 +20°C° 0 mm 4 mps 760 mmHg 79%
    02:00 +20°C° 0 mm 4 mps 759 mmHg 79%
    03:00 +20°C° 0 mm 4 mps 759 mmHg 79%
    04:00 +20°C° 0 mm 4 mps 759 mmHg 78%
    05:00 +20°C° 0 mm 4 mps 759 mmHg 78%
    06:00 +22°C° 0 mm 4 mps 759 mmHg 68%
    07:00 +25°C° 0 mm 4 mps 759 mmHg 58%
    08:00 +27°C° 0 mm 4 mps 760 mmHg 47%
    09:00 +28°C° 0 mm 4 mps 760 mmHg 43%
    10:00 +29°C° 0 mm 5 mps 759 mmHg 40%
    11:00 +30°C° 0 mm 5 mps 759 mmHg 36%
    12:00 +30°C° 0 mm 5 mps 759 mmHg 35%
    13:00 +32°C° 0 mm 5 mps 758 mmHg 34%
    14:00 +32°C° 0 mm 6 mps 758 mmHg 33%
    15:00 +30°C° 0 mm 6 mps 758 mmHg 35%
    16:00 +29°C° 0 mm 5 mps 757 mmHg 38%
    17:00 +29°C° 0 mm 5 mps 757 mmHg 40%
    18:00 +27°C° 0 mm 5 mps 757 mmHg 51%
    19:00 +25°C° 0 mm 4 mps 758 mmHg 62%
    20:00 +22°C° 0 mm 4 mps 758 mmHg 72%
    21:00 +21°C° 0 mm 4 mps 758 mmHg 74%
    22:00 +21°C° 0 mm 3 mps 758 mmHg 76%
    23:00 +21°C° 0 mm 3 mps 758 mmHg 78%

    7 June, Sunday

    Time Temperature Precipitation Wind Pressure Humidity
    00:00 +20°C° 0 mm 3 mps 758 mmHg 79%
    01:00 +20°C° 0 mm 3 mps 758 mmHg 79%
    02:00 +20°C° 0 mm 3 mps 757 mmHg 80%
    03:00 +20°C° 0 mm 3 mps 757 mmHg 79%
    04:00 +20°C° 0 mm 3 mps 757 mmHg 77%
    05:00 +20°C° 0 mm 3 mps 757 mmHg 76%
    06:00 +22°C° 0 mm 3 mps 757 mmHg 63%
    07:00 +26°C° 0 mm 3 mps 758 mmHg 50%
    08:00 +29°C° 0 mm 3 mps 758 mmHg 36%
    09:00 +30°C° 0 mm 3 mps 758 mmHg 32%
    10:00 +33°C° 0 mm 4 mps 758 mmHg 28%
    11:00 +34°C° 0 mm 4 mps 758 mmHg 24%
    12:00 +34°C° 0 mm 5 mps 757 mmHg 24%
    13:00 +34°C° 0 mm 5 mps 757 mmHg 24%
    14:00 +34°C° 0 mm 5 mps 757 mmHg 24%
    15:00 +33°C° 0 mm 5 mps 757 mmHg 28%
    16:00 +32°C° 0 mm 5 mps 757 mmHg 31%
    17:00 +30°C° 0 mm 5 mps 756 mmHg 35%
    18:00 +28°C° 0 mm 5 mps 757 mmHg 46%
    19:00 +26°C° 0 mm 5 mps 757 mmHg 57%
    20:00 +23°C° 0 mm 4 mps 757 mmHg 69%
    21:00 +23°C° 0 mm 4 mps 758 mmHg 69%
    22:00 +24°C° 0 mm 3 mps 758 mmHg 70%
    23:00 +22°C° 0 mm 3 mps 758 mmHg 71%

    8 June, Monday

    Time Temperature Precipitation Wind Pressure Humidity
    00:00 +22°C° 0 mm 3 mps 757 mmHg 73%
    01:00 +21°C° 0 mm 2 mps 757 mmHg 74%
    02:00 +21°C° 0 mm 2 mps 757 mmHg 75%
    03:00 +20°C° 0 mm 2 mps 757 mmHg 77%
    04:00 +20°C° 0 mm 2 mps 757 mmHg 78%
    05:00 +20°C° 0 mm 1 mps 757 mmHg 80%
    06:00 +23°C° 0 mm 2 mps 757 mmHg 65%
    07:00 +26°C° 0 mm 2 mps 757 mmHg 51%
    08:00 +29°C° 0 mm 3 mps 757 mmHg 37%
    09:00 +30°C° 0 mm 3 mps 757 mmHg 34%
    10:00 +33°C° 0 mm 4 mps 757 mmHg 30%
    11:00 +34°C° 0 mm 4 mps 757 mmHg 26%
    12:00 +34°C° 0 mm 5 mps 757 mmHg 26%
    13:00 +34°C° 0 mm 5 mps 757 mmHg 26%
    14:00 +34°C° 0 mm 6 mps 757 mmHg 26%
    15:00 +33°C° 0 mm 6 mps 756 mmHg 30%
    16:00 +32°C° 0 mm 6 mps 756 mmHg 34%
    17:00 +29°C° 0 mm 6 mps 756 mmHg 38%
    18:00 +28°C° 0 mm 5 mps 757 mmHg 48%
    19:00 +26°C° 0 mm 4 mps 757 mmHg 57%
    20:00 +23°C° 0 mm 4 mps 757 mmHg 67%
    21:00 +22°C° 0 mm 3 mps 757 mmHg 70%
    22:00 +22°C° 0 mm 3 mps 757 mmHg 73%
    23:00 +21°C° 0 mm 3 mps 758 mmHg 76%
    Show more